World > North America > United States > Arkansas

Hourly Minturn, AR Regional Weather

Feedback E-mail the Weather

Quick WX

Minturn, AR Weather Maps

°F °C°F °C
Minturn Weather Map
UTC Time: 7/6/2022, 01:54
Your Time:

Minturn, AR Regional Weather

Expires:202207060200;;756578
ASUS44 KLZK 060110
RWRLZK

WEATHER ROUNDUP FOR ARKANSAS
NATIONAL WEATHER SERVICE LITTLE ROCK AR
800 PM CDT TUE JUL 05 2022

NOTE: "FAIR" INDICATES FEW OR NO CLOUDS BELOW 12,000 FEET WITH NO
SIGNIFICANT WEATHER AND/OR OBSTRUCTIONS TO VISIBILITY.


ARZ009-017-025-026-028-060200-
NORTHEAST ARKANSAS
  
CITY           SKY/WX    TMP DP  RH WIND       PRES   REMARKS
JONESBORO      CLEAR     94  71  47 S9        29.91S HX 101           
NEWPORT        CLEAR     91  74  57 S12       29.91S HX 100           
WALNUT RIDGE   CLEAR     92  76  59 S9        29.90S HX 104           
BLYTHEVILLE    CLEAR     92  72  51 SW6       29.91S HX  99           
$$


SKY/WX - Weather  TMP - Temperature  DP - Dew Point  RH - Humidity
WIND - Wind Direction/Speed PRES - Barometric Pressure VSB - Visibility
WCI - Wind Chill Index E13G22 Wind - East Wind 13 mph/Gusts of 22 mph

Trending Headlines

Minturn Radar Loop



Minturn Quick Facts


National Two Day Weather Forecast


E-mail the Minturn Weather Forecast

Voice your opinion or tell us about page issues...